Weather History for Eveleth, MN

Change the Weather History Date:

Wednesday, November 7, 2012

  Actual Average Record
Temperature  
Mean Temperature 35 °F -  
Max Temperature 37 °F 38 °F 60 °F (2010)
Min Temperature 33 °F 23 °F -6 °F (1991)
Degree Days  
Heating Degree Days 30    
Moisture  
Dew Point 33 °F    
Average Humidity 91    
Maximum Humidity 93    
Minimum Humidity 81    
Precipitation  
Precipitation 0.00 in - - ()
Sea Level Pressure  
Sea Level Pressure 30.01 in    
Wind  
Wind Speed 4 mph (West)    
Max Wind Speed 9 mph    
Max Gust Speed -    
Visibility 9 miles    
Events      
Averages and records for this station are not official NWS values.
T = Trace of Precipitation, MM = Missing Value Source: NWS Daily Summary

Daily Weather History Graph

Daily Weather History Graph

Search for Another Location

Airport:

Trip Planner

Search our weather history database for the weather conditions in past years. The results will help you decide how hot, cold, wet, or windy it might be!

Date:

Astronomy

Nov. 07, 2012 Rise Set
Actual Time 7:03 AM CST 4:43 PM CST
Civil Twilight 6:30 AM CST 5:16 PM CST
Nautical Twilight 5:53 AM CST 5:52 PM CST
Astronomical Twilight 5:18 AM CST 6:28 PM CST
Moon No Moon Rise 1:18 PM CST (11/7)
Length of Visible Light 10h 45m
Length of Day
9h 39m
Last Quarter, 43% of the Moon is Illuminated
Nov 7
Last Quarter
Nov 13
New
Nov 20
First Quarter
Nov 28
Full
Dec 6
Last Quarter

Hourly Weather History & Observations

Time (CST) Temp. Windchill Dew Point Humidity Pressure Visibility Wind Dir Wind Speed Gust Speed Precip Events Conditions
12:09 AM 35.6 °F 31.7 °F 33.8 °F 93% 2.96 in 7.0 mi NNW 4.6 mph - N/A   Overcast
12:30 AM 35.6 °F 32.8 °F 33.8 °F 93% 29.93 in 7.0 mi NNW 3.5 mph - N/A   Overcast
12:49 AM 35.6 °F 31.7 °F 33.8 °F 93% 29.94 in 10.0 mi NW 4.6 mph - N/A   Overcast
1:09 AM 35.6 °F 29.9 °F 33.8 °F 93% 29.95 in 10.0 mi NW 6.9 mph - N/A   Overcast
1:30 AM 35.6 °F 31.7 °F 33.8 °F 93% 29.95 in 7.0 mi WNW 4.6 mph - N/A   Overcast
1:49 AM 35.6 °F 30.7 °F 33.8 °F 93% 29.95 in 7.0 mi NW 5.8 mph - N/A   Overcast
2:09 AM 35.6 °F 31.7 °F 33.8 °F 93% 29.96 in 7.0 mi NW 4.6 mph - N/A   Overcast
2:49 AM 35.6 °F 30.7 °F 33.8 °F 93% 29.97 in 3.0 mi WNW 5.8 mph - N/A   Overcast
3:10 AM 35.6 °F 31.7 °F 33.8 °F 93% 29.98 in 5.0 mi NW 4.6 mph - N/A   Overcast
3:29 AM 35.6 °F 32.8 °F 33.8 °F 93% 29.97 in 5.0 mi NW 3.5 mph - N/A   Overcast
3:49 AM 35.6 °F 31.7 °F 33.8 °F 93% 29.98 in 10.0 mi NW 4.6 mph - N/A   Overcast
4:10 AM 35.6 °F 29.2 °F 33.8 °F 93% 29.98 in 7.0 mi NW 8.1 mph - N/A   Overcast
4:29 AM 35.6 °F 28.6 °F 33.8 °F 93% 29.99 in 3.0 mi WNW 9.2 mph - N/A   Overcast
4:49 AM 35.6 °F 30.7 °F 33.8 °F 93% 29.99 in 2.5 mi NW 5.8 mph - N/A   Overcast
5:10 AM 35.6 °F 31.7 °F 33.8 °F 93% 29.99 in 5.0 mi NW 4.6 mph - N/A   Overcast
6:10 AM 33.8 °F 28.6 °F 32.0 °F 93% 30.01 in 2.5 mi WNW 5.8 mph - N/A   Overcast
6:29 AM 33.8 °F 28.6 °F 32.0 °F 93% 30.01 in 4.0 mi NW 5.8 mph - N/A   Overcast
6:50 AM 33.8 °F 29.6 °F 32.0 °F 93% 30.01 in 5.0 mi WNW 4.6 mph - N/A   Overcast
7:09 AM 33.8 °F 27.7 °F 32.0 °F 93% 30.02 in 10.0 mi WNW 6.9 mph - N/A   Overcast
7:29 AM 33.8 °F 29.6 °F 32.0 °F 93% 30.03 in 10.0 mi WNW 4.6 mph - N/A   Overcast
7:50 AM 33.8 °F 28.6 °F 32.0 °F 93% 30.04 in 10.0 mi WNW 5.8 mph - N/A   Overcast
8:09 AM 33.8 °F 29.6 °F 32.0 °F 93% 30.04 in 10.0 mi NW 4.6 mph - N/A   Overcast
8:29 AM 33.8 °F 29.6 °F 32.0 °F 93% 30.04 in 10.0 mi WNW 4.6 mph - N/A   Overcast
8:49 AM 35.6 °F 29.9 °F 33.8 °F 93% 30.05 in 10.0 mi NW 6.9 mph - N/A   Overcast
9:09 AM 35.6 °F 29.2 °F 33.8 °F 93% 30.05 in 10.0 mi NW 8.1 mph - N/A   Overcast
9:30 AM 35.6 °F 29.9 °F 33.8 °F 93% 30.05 in 10.0 mi NW 6.9 mph - N/A   Overcast
9:49 AM 35.6 °F 30.7 °F 33.8 °F 93% 30.05 in 10.0 mi NW 5.8 mph - N/A   Overcast
10:09 AM 35.6 °F 32.8 °F 33.8 °F 93% 30.05 in 10.0 mi WNW 3.5 mph - N/A   Overcast
10:30 AM 35.6 °F 31.7 °F 33.8 °F 93% 30.05 in 10.0 mi WNW 4.6 mph - N/A   Overcast
10:49 AM 35.6 °F - 33.8 °F 93% 30.05 in 10.0 mi Calm Calm - N/A   Overcast
11:09 AM - - - N/A% 3.06 in 10.0 mi Calm Calm - N/A   Overcast
11:30 AM 35.6 °F 32.8 °F 33.8 °F 93% 30.04 in 10.0 mi West 3.5 mph - N/A   Overcast
11:49 AM 35.6 °F 31.7 °F 33.8 °F 93% 30.04 in 10.0 mi West 4.6 mph - N/A   Overcast
12:09 PM 35.6 °F - 32.0 °F 87% 30.04 in 10.0 mi Calm Calm - N/A   Overcast
12:30 PM 35.6 °F 32.8 °F 32.0 °F 87% 30.04 in 10.0 mi West 3.5 mph - N/A   Overcast
12:49 PM 35.6 °F 31.7 °F 32.0 °F 87% 30.03 in 10.0 mi WSW 4.6 mph - N/A   Overcast
1:09 PM 35.6 °F 32.8 °F 32.0 °F 87% 30.03 in 10.0 mi West 3.5 mph - N/A   Overcast
1:30 PM 35.6 °F 31.7 °F 32.0 °F 87% 30.03 in 10.0 mi WSW 4.6 mph - N/A   Overcast
1:49 PM 35.6 °F 31.7 °F 32.0 °F 87% 30.03 in 10.0 mi WNW 4.6 mph - N/A   Overcast
2:09 PM 37.4 °F 34.9 °F 32.0 °F 81% 30.02 in 10.0 mi WSW 3.5 mph - N/A   Overcast
2:30 PM 37.4 °F - 32.0 °F 81% 30.03 in 10.0 mi Calm Calm - N/A   Overcast
2:49 PM 37.4 °F - 32.0 °F 81% 30.03 in 10.0 mi Calm Calm - N/A   Overcast
3:10 PM 37.4 °F - 32.0 °F 81% 30.03 in 10.0 mi Calm Calm - N/A   Overcast
3:34 PM 37.4 °F - 32.0 °F 81% 30.03 in 10.0 mi Calm Calm - N/A   Overcast
3:49 PM 37.4 °F - 32.0 °F 81% 30.04 in 10.0 mi Calm Calm - N/A   Overcast
4:10 PM 35.6 °F - 32.0 °F 87% 30.03 in 10.0 mi Calm Calm - N/A   Overcast
4:29 PM 35.6 °F - 32.0 °F 87% 30.03 in 10.0 mi Calm Calm - N/A   Overcast
4:49 PM 35.6 °F - 32.0 °F 87% 30.04 in 10.0 mi Calm Calm - N/A   Overcast
5:10 PM 35.6 °F - 32.0 °F 87% 30.04 in 10.0 mi Calm Calm - N/A   Overcast
5:29 PM 35.6 °F 32.8 °F 32.0 °F 87% 30.04 in 10.0 mi SSE 3.5 mph - N/A   Overcast
5:49 PM - - - N/A% - 10.0 mi Calm Calm - N/A   Overcast
6:10 PM 35.6 °F - 32.0 °F 87% 30.03 in 10.0 mi Calm Calm - N/A   Overcast
6:29 PM 35.6 °F - 32.0 °F 87% 30.03 in 10.0 mi Calm Calm - N/A   Overcast
6:49 PM 35.6 °F 31.7 °F 32.0 °F 87% 30.03 in 10.0 mi SSE 4.6 mph - N/A   Overcast
7:09 PM 35.6 °F 31.7 °F 33.8 °F 93% 30.02 in 10.0 mi SSE 4.6 mph - N/A   Overcast
7:29 PM 35.6 °F 30.7 °F 33.8 °F 93% 30.01 in 10.0 mi SSE 5.8 mph - N/A   Overcast
7:50 PM 35.6 °F 30.7 °F 33.8 °F 93% 30.01 in 10.0 mi SSE 5.8 mph - N/A   Overcast
8:09 PM 35.6 °F 29.2 °F 33.8 °F 93% 30.00 in 10.0 mi SSE 8.1 mph - N/A   Overcast
8:29 PM 35.6 °F 29.9 °F 33.8 °F 93% 30.00 in 10.0 mi SSE 6.9 mph - N/A   Overcast
8:50 PM 35.6 °F 30.7 °F 33.8 °F 93% 30.00 in 10.0 mi SSE 5.8 mph - N/A   Overcast
9:09 PM 33.8 °F - 32.0 °F 93% 30.00 in 10.0 mi Calm Calm - N/A   Scattered Clouds
9:29 PM 33.8 °F 30.8 °F 32.0 °F 93% 30.00 in 10.0 mi South 3.5 mph - N/A   Scattered Clouds
9:50 PM 33.8 °F 30.8 °F 32.0 °F 93% 30.00 in 10.0 mi SSE 3.5 mph - N/A   Scattered Clouds
10:09 PM 33.8 °F 30.8 °F 32.0 °F 93% 30.01 in 10.0 mi South 3.5 mph - N/A   Mostly Cloudy
10:29 PM 33.8 °F 28.6 °F 32.0 °F 93% 30.00 in 10.0 mi SSE 5.8 mph - N/A   Overcast
10:49 PM 35.6 °F 30.7 °F 33.8 °F 93% 30.00 in 10.0 mi SSE 5.8 mph - N/A   Overcast
11:09 PM 35.6 °F 29.9 °F 33.8 °F 93% 29.98 in 10.0 mi SSE 6.9 mph - N/A   Overcast
11:30 PM 35.6 °F 29.9 °F 33.8 °F 93% 29.98 in 10.0 mi SSE 6.9 mph - N/A   Mostly Cloudy
11:49 PM 35.6 °F 29.2 °F 32.0 °F 87% 29.99 in 10.0 mi South 8.1 mph - N/A   Mostly Cloudy